SCP
0 0 0 0 0 0 0 0 0 0 0 0 0 0 0 0 0 0 0 0 0 0 0 0 0 0 0 0 0 0 0 0 0 0 0 0 0 0 0 0 0 0 0 0
0 0 0 0 0 0 0 0 0 0 0 0 0 0 0 0 0 0 0 0 0 0 0 0 0 0 0 0 0 0 0 0 0 0 0 0 0 0 0 0 0 0 0 0
0 0 0 0 0 0 0 0 0 0 0 0 0 0 0 0 0 0 0 0 0 0 0 0 0 0 0 0 0 0 0 0 0 0 0 0 0 0 0 0 0 0 0 0
0 0 0 0 0 0 0 0 0 0 0 0 0 0 0 0 0 0 0 0 0 0 0 0 0 0 0 0 0 0 0 0 0 0 0 0 0 0 0 0 0 0 0 0
0 0 0 0 0 0 0 0 0 0 0 0 0 0 0 0 0 0 0 0 0 0 0 0 0 0 0 0 0 0 0 0 0 0 0 0 0 0 0 0 0 0 0 0
0 0 0 0 0 0 0 0 0 0 0 0 0 0 0 0 0 0 0 0 0 0 0 0 0 0 0 0 0 0 0 0 0 0 0 0 0 0 0 0 0 0 0 0
0 0 0 0 0 0 0 0 0 0 0 0 0 0 0 0 0 0 0 0 0 0 0 0 0 0 0 0 0 0 0 0 0 0 0 0 0 0 0 0 0 0 0 0
0 0 0 0 0 0 0 0 0 0 0 0 0 0 0 0 0 0 0 0 0 0 0 0 0 0 0 0 0 0 0 0 0 0 0 0 0 0 0 0 0 0 0 0
0 0 0 0 0 0 0 0 0 0 0 0 0 0 0 0 0 0 0 0 0 0 0 0 0 0 0 0 0 0 0 0 0 0 0 0 0 0 0 0 0 0 0 0
0 0 0 0 0 0 0 0 0 0 0 0 0 0 0 0 0 0 0 0 0 0 0 0 0 0 0 0 0 0 0 0 0 0 0 0 0 0 0 0 0 0 0 0
0 0 0 0 0 0 0 0 0 0 0 0 0 0 0 0 0 0 0 0 0 0 0 0 0 0 0 0 0 0 0 0 0 0 0 0 0 0 0 0 0 0 0 0
0 0 0 0 0 0 0 0 0 0 0 0 0 0 0 0 0 0 0 0 0 0 0 0 0 0 0 0 0 0 0 0 0 0 0 0 0 0 0 0 0 0 0 0
0 0 0 0 0 0 0 0 0 0 0 0 0 0 0 0 0 0 0 0 0 0 0 0 0 0 0 0 0 0 0 0 0 0 0 0 0 0 0 0 0 0 0 0
0 0 0 0 0 0 0 0 0 0 0 0 0 0 0 0 0 0 0 0 0 0 0 0 0 0 0 0 0 0 0 0 0 0 0 0 0 0 0 0 0 0 0 0
0 0 0 0 0 0 0 0 0 0 0 0 0 0 0 0 0 0 0 0 0 0 0 0 0 0 0 0 0 0 0 0 0 0 0 0 0 0 0 0 0 0 0 0
0 0 0 0 0 0 0 0 0 0 0 0 0 0 0 0 0 0 0 0 0 0 0 0 0 0 0 0 0 0 0 0 0 0 0 0 0 0 0 0 0 0 0 0
0 0 0 0 0 0 0 0 0 0 0 0 0 0 0 0 0 0 0 0 0 0 0 0 0 0 0 0 0 0 0 0 0 0 0 0 0 0 0 0 0 0 0 0
0 0 0 0 0 0 0 0 0 0 0 0 0 0 0 0 0 0 0 0 0 0 0 0 0 0 0 0 0 0 0 0 0 0 0 0 0 0 0 0 0 0 0 0
0 0 0 0 0 0 0 0 0 0 0 0 0 0 0 0 0 0 0 0 0 0 0 0 0 0 0 0 0 0 0 0 0 0 0 0 0 0 0 0 0 0 0 0
0 0 0 0 0 0 0 0 0 0 0 0 0 0 0 0 0 0 0 0 0 0 0 0 0 0 0 0 0 0 0 0 0 0 0 0 0 0 0 0 0 0 0 0
0 0 0 0 0 0 0 0 0 0 0 0 0 0 0 0 0 0 0 0 0 0 0 0 0 0 0 0 0 0 0 0 0 0 0 0 0 0 0 0 0 0 0 0
0 0 0 0 0 0 0 0 0 0 0 0 0 0 0 0 0 0 0 0 0 0 0 0 0 0 0 0 0 0 0 0 0 0 0 0 0 0 0 0 0 0 0 0
0 0 0 0 0 0 0 0 0 0 0 0 0 0 0 0 0 0 0 0 0 0 0 0 0 0 0 0 0 0 0 0 0 0 0 0 0 0 0 0 0 0 0 0
0 0 0 0 0 0 0 0 0 0 0 0 0 0 0 0 0 0 0 0 0 0 0 0 0 0 0 0 0 0 0 0 0 0 0 0 0 0 0 0 0 0 0 0
0 0 0 0 0 0 0 0 0 0 0 0 0 0 0 0 0 0 0 0 0 0 0 0 0 0 0 0 0 0 0 0 0 0 0 0 0 0 0 0 0 0 0 0
0 0 0 0 0 0 0 0 0 0 0 0 0 0 0 0 0 0 0 0 0 0 0 0 0 0 0 0 0 0 0 0 0 0 0 0 0 0 0 0 0 0 0 0
0 0 0 0 0 0 0 0 0 0 0 0 0 0 0 0 0 0 0 0 0 0 0 0 0 0 0 0 0 0 0 0 0 0 0 0 0 0 0 0 0 0 0 0
Wind_Speed
3 1 4 7 9 12 15 14 13 14 16 14 9 9 9 10 10 11 11 9 8 6 4 3 2 2 2 3 4 6 7 8 9 10 11 11 12 13 13 14 14 15 15 16
3 2 4 7 12 15 17 17 19 20 20 11 5 5 7 10 11 11 10 9 7 5 4 3 2 3 3 5 5 7 8 10 10 10 11 12 13 14 14 15 15 15 15 16
5 2 3 11 13 16 12 13 13 16 12 3 4 6 7 9 10 11 9 8 6 5 3 3 3 4 5 6 7 8 10 11 11 11 12 13 14 14 15 16 16 16 16 17
3 4 10 5 2 5 11 13 13 12 6 4 3 3 3 6 9 9 7 6 5 3 3 3 3 4 6 7 8 9 11 12 11 11 13 14 15 15 16 15 15 15 16 17
5 7 10 7 5 7 8 9 9 12 9 6 6 5 4 4 5 5 5 4 3 2 2 3 4 5 7 8 9 10 12 12 12 12 13 14 15 16 16 16 16 16 16 17
5 6 9 4 4 4 3 8 4 8 9 10 10 7 5 6 6 5 4 3 2 2 3 4 5 6 8 10 11 12 12 13 14 14 14 16 17 17 16 15 16 16 16 16
10 10 10 1 6 7 6 3 4 8 11 12 9 2 7 8 6 5 4 3 2 3 4 5 6 6 9 11 12 12 13 14 14 15 15 16 16 15 16 15 16 16 17 16
8 10 10 7 10 9 3 3 5 8 9 9 6 7 6 6 5 4 3 3 3 4 5 6 6 8 10 12 13 13 13 14 15 15 14 13 15 15 15 16 17 16 16 16
10 6 2 7 5 1 1 3 5 7 7 8 7 6 6 5 4 4 3 3 3 5 7 8 8 8 12 13 13 14 14 15 16 16 14 14 14 15 15 13 12 13 13 13
6 6 4 5 5 4 4 4 5 6 7 7 6 6 6 4 4 3 3 3 4 6 8 10 10 11 12 14 13 14 15 16 15 15 15 14 11 11 12 12 12 13 13 14
7 4 3 5 7 6 5 6 7 6 5 6 6 6 5 4 3 3 3 4 5 7 9 12 12 13 14 14 14 15 16 15 15 13 14 13 12 11 13 13 14 16 14 14
6 5 5 3 4 7 8 8 8 8 6 5 5 5 4 3 3 4 5 6 7 9 11 12 13 14 15 14 14 15 14 14 12 11 11 12 13 13 14 17 22 24 25 23
1 2 2 2 3 6 7 7 7 7 7 6 4 4 3 3 4 5 7 8 9 10 12 13 14 15 15 14 13 14 14 14 11 11 12 12 12 13 15 15 18 22 23 24
3 4 3 4 4 5 7 7 7 6 5 4 3 3 3 4 5 7 9 9 10 11 13 14 15 15 15 14 13 14 14 13 13 11 11 12 12 13 13 15 15 13 16 22
4 3 3 5 7 7 7 7 6 5 4 3 2 3 4 6 7 9 10 10 11 12 14 14 15 16 15 14 13 14 13 10 10 11 11 12 12 13 13 15 14 15 14 15
5 5 6 8 8 7 6 6 5 4 3 3 3 4 5 7 9 10 11 10 11 14 14 14 15 16 14 13 13 12 11 14 14 12 12 12 12 12 13 13 14 14 14 13
7 7 7 7 7 6 5 4 4 3 3 4 5 6 7 8 10 11 12 11 12 13 14 15 15 14 13 13 13 11 11 12 16 13 11 12 12 12 13 13 13 13 13 15
5 5 6 7 6 6 4 3 2 2 3 4 5 7 8 10 12 13 13 13 13 14 14 14 13 13 13 13 11 10 10 11 11 11 11 11 12 12 13 13 14 15 13 14
6 7 6 5 4 3 2 2 2 3 4 5 7 9 10 11 12 12 13 13 14 15 13 12 16 15 14 14 14 10 11 12 12 12 12 15 14 12 12 13 13 13 13 13
7 6 5 4 2 1 1 2 4 5 6 6 8 10 11 12 11 12 12 13 11 11 12 14 15 13 13 13 14 11 12 12 13 12 12 12 12 13 12 13 13 13 13 12
5 4 3 1 1 2 3 4 5 7 8 8 9 11 12 12 12 11 11 13 12 11 13 16 12 11 11 13 16 12 11 12 12 12 12 12 12 13 13 13 13 13 12 12
2 1 1 2 3 5 5 6 6 8 9 9 10 10 11 12 12 12 12 11 12 14 12 11 10 13 16 19 12 12 11 12 12 11 11 11 12 12 12 13 13 12 12 12
1 2 3 4 5 6 8 8 8 8 9 10 11 11 12 12 10 11 12 10 10 15 13 11 15 21 24 15 11 11 12 12 12 11 11 11 12 12 12 13 12 12 12 12
3 4 5 5 5 7 9 9 8 8 9 11 10 11 11 11 10 9 10 14 17 19 13 15 21 22 21 11 10 11 11 11 11 11 11 11 11 11 11 12 12 12 12 13
5 5 6 6 7 7 8 9 9 10 10 9 11 11 9 9 10 11 12 14 17 18 13 15 20 20 14 11 11 11 11 11 11 12 11 11 11 11 11 11 11 12 11 11
5 5 6 7 7 7 7 7 8 8 9 10 10 9 9 9 11 11 11 13 16 17 14 11 12 13 11 11 11 11 11 11 12 11 11 11 12 12 11 11 14 12 11 11
6 6 6 6 6 6 6 7 8 9 9 10 12 11 11 11 11 11 13 12 12 12 11 11 10 10 10 11 11 11 10 10 10 10 10 10 10 10 11 13 11 10 10 10
Wind_Direction
254 144 186 214 208 199 214 233 249 260 263 267 257 236 217 192 177 172 170 170 170 172 169 174 192 236 279 296 304 309 307 305 304 304 303 301 299 299 298 296 294 293 292 291
213 183 225 248 240 226 230 242 249 262 270 279 274 241 210 190 180 180 178 177 174 175 183 201 231 267 282 291 300 302 300 299 301 299 299 299 299 300 298 296 295 294 292 291
230 163 241 252 240 227 223 225 235 250 263 230 208 214 205 192 185 184 180 177 178 184 196 222 252 274 286 295 299 296 295 296 297 298 298 298 299 298 297 297 296 295 293 292
193 180 235 250 114 221 230 243 235 246 247 200 195 156 171 184 183 178 172 172 176 186 207 232 257 272 284 289 290 292 293 296 297 297 296 297 298 298 298 299 298 296 295 295
193 233 261 265 212 193 213 255 228 230 224 175 144 146 154 164 175 169 162 162 167 194 226 247 266 278 286 288 291 292 294 297 299 298 296 297 298 299 301 300 298 297 297 296
190 222 246 244 129 154 188 262 210 202 186 164 165 189 168 148 151 148 146 153 178 212 240 261 276 284 286 290 294 295 298 299 300 298 297 296 298 300 300 298 297 298 295 295
219 235 258 224 137 162 214 291 141 179 172 169 182 151 116 135 142 149 157 174 206 239 259 273 284 285 285 290 292 298 299 298 297 297 296 297 298 298 299 298 297 297 297 296
203 221 242 150 161 202 252 74 167 172 169 168 149 121 131 143 149 160 173 197 233 262 276 283 284 283 285 290 297 300 299 297 297 298 299 297 297 298 299 300 300 301 301 301
201 216 46 166 201 240 122 184 176 169 165 159 152 158 157 161 167 178 203 232 258 274 285 288 287 283 286 295 302 302 300 298 299 300 299 297 297 300 301 300 299 300 300 300
229 244 225 220 228 224 204 189 162 156 152 156 158 159 164 171 183 204 231 256 270 278 284 291 297 296 293 298 301 300 299 301 301 301 300 300 298 296 296 298 298 298 299 300
236 247 236 227 220 200 169 150 138 130 137 150 151 160 172 184 204 232 258 269 274 278 285 292 298 298 299 302 304 302 301 301 301 299 299 301 299 295 294 290 289 294 296 298
226 204 202 198 180 174 164 160 152 141 137 143 157 165 178 204 233 257 271 279 281 285 289 294 299 299 301 303 304 302 301 301 301 301 300 299 300 299 288 285 292 293 293 295
194 124 162 126 144 165 164 154 150 149 149 153 158 171 195 234 258 270 276 281 284 290 293 297 299 299 301 304 303 299 297 298 299 298 298 300 300 300 302 300 295 296 297 299
161 147 159 168 160 152 143 137 133 131 139 153 164 187 224 257 271 276 279 285 291 293 294 296 298 298 303 305 302 297 296 295 293 293 296 296 296 297 299 303 306 305 303 303
168 182 159 134 129 130 130 133 137 144 152 168 193 227 250 266 276 282 288 293 293 291 293 296 298 300 306 307 302 298 296 292 293 294 293 293 294 296 297 298 300 303 304 305
130 130 138 142 142 142 144 150 160 173 189 218 244 260 270 277 282 286 289 292 293 294 297 299 297 300 306 304 299 296 292 290 293 294 294 295 295 296 297 298 300 301 302 305
151 156 159 158 156 158 164 171 181 195 224 252 270 284 288 287 287 288 292 296 293 291 293 293 294 298 300 298 296 295 295 294 294 293 292 294 295 296 297 299 300 300 299 300
174 158 161 160 160 161 165 174 199 235 258 275 288 288 286 287 290 295 299 300 296 293 291 293 296 300 298 297 296 294 293 292 293 293 293 294 296 297 299 299 299 298 299 301
128 127 126 128 137 148 170 215 252 270 279 283 285 286 287 287 288 291 295 295 293 293 296 300 303 301 298 297 297 293 292 292 292 292 294 296 298 297 297 297 297 298 298 299
107 109 111 111 111 146 239 270 281 282 283 285 284 285 285 287 290 292 293 288 282 285 293 298 300 296 296 297 299 293 291 291 293 296 297 297 297 298 298 297 297 297 298 298
110 110 110 115 274 275 275 279 281 283 287 285 280 281 285 289 290 290 289 289 291 295 298 299 297 296 298 299 299 293 292 293 295 296 297 297 297 297 297 297 297 297 297 297
122 146 243 271 278 283 285 283 279 280 282 281 279 279 282 286 289 288 279 279 289 297 299 296 295 297 301 303 297 295 295 296 296 296 295 296 296 296 296 297 298 297 297 297
241 261 270 274 279 285 288 283 277 275 276 278 281 283 284 287 290 289 291 292 295 299 299 294 297 302 305 305 298 297 297 297 296 295 294 294 294 293 295 297 297 297 297 297
266 270 273 279 280 277 279 283 283 279 278 279 276 275 279 286 286 281 282 292 296 299 297 295 299 303 306 302 298 297 296 295 295 295 293 293 293 294 296 296 296 296 296 297
268 271 271 273 274 275 280 287 288 285 284 282 284 283 278 275 282 290 293 294 297 300 298 298 301 303 303 297 296 295 294 292 293 295 295 297 297 296 295 296 297 297 297 296
270 274 275 273 272 277 282 283 284 288 291 291 292 294 292 289 288 290 292 294 297 297 297 296 298 300 297 295 295 295 294 296 297 296 294 295 294 295 295 296 297 296 295 295
275 274 275 277 274 271 274 278 282 286 289 290 293 296 295 295 294 295 296 296 296 296 297 297 297 297 296 296 295 295 295 295 295 295 295 295 294 294 294 296 295 295 295 294